Weather History for Rensselaer, IN

Change the Weather History Date:

Tuesday, January 1, 2013

  Actual Average (KVPZ) Record (KVPZ)
Temperature  
Mean Temperature 18 °F 24 °F  
Max Temperature 28 °F 31 °F 54 °F (2011)
Min Temperature 8 °F 17 °F 4 °F (2010)
Degree Days  
Heating Degree Days 47 41  
Month to date heating degree days 41  
Since 1 July heating degree days 2443  
Cooling Degree Days 0 0  
Month to date cooling degree days 0  
Year to date cooling degree days 0  
Moisture  
Dew Point 17 °F    
Average Humidity 80    
Maximum Humidity 93    
Minimum Humidity 64    
Precipitation  
Precipitation 0.00 in 0.06 in 0.21 in (2005)
Month to date precipitation 0.06  
Year to date precipitation 0.06  
Sea Level Pressure  
Sea Level Pressure 30.14 in    
Wind  
Wind Speed 6 mph (WNW)    
Max Wind Speed 10 mph    
Max Gust Speed 20 mph    
Visibility 10 miles    
Events      
T = Trace of Precipitation, MM = Missing Value Source: NWS Daily Summary

Daily Weather History Graph

Daily Weather History Graph

Search for Another Location

Airport:

Trip Planner

Search our weather history database for the weather conditions in past years. The results will help you decide how hot, cold, wet, or windy it might be!

Date:

Astronomy

Jan. 01, 2013 Rise Set
Actual Time 7:13 AM CST 4:31 PM CST
Civil Twilight 6:42 AM CST 5:02 PM CST
Nautical Twilight 6:08 AM CST 5:37 PM CST
Astronomical Twilight 5:34 AM CST 6:10 PM CST
Moon 9:04 PM CST (1/1) 9:23 AM CST (1/1)
Length of Visible Light 10h 19m
Length of Day
9h 18m
Waning Gibbous, 83% of the Moon is Illuminated
Jan 1
Waning Gibbous
Jan 4
Last Quarter
Jan 11
New
Jan 18
First Quarter
Jan 26
Full

Hourly Weather History & Observations

Time (CST) Temp. Windchill Dew Point Humidity Pressure Visibility Wind Dir Wind Speed Gust Speed Precip Events Conditions
12:15 AM 26.6 °F 20.0 °F 23.0 °F 86% 30.08 in 10.0 mi WNW 5.8 mph - N/A   Overcast
12:35 AM 26.6 °F 21.2 °F 23.0 °F 86% 30.08 in 10.0 mi WNW 4.6 mph - N/A   Overcast
12:55 AM 26.6 °F 21.2 °F 23.0 °F 86% 30.07 in 7.0 mi NW 4.6 mph - N/A   Overcast
1:15 AM 26.6 °F 20.0 °F 23.0 °F 86% 30.08 in 7.0 mi WNW 5.8 mph - N/A   Overcast
1:35 AM 26.6 °F 19.1 °F 24.8 °F 93% 30.09 in 7.0 mi NNW 6.9 mph - N/A   Overcast
1:55 AM 26.6 °F 19.1 °F 23.0 °F 86% 30.10 in 7.0 mi NW 6.9 mph - N/A   Overcast
2:15 AM 26.6 °F 19.1 °F 23.0 °F 86% 30.10 in 10.0 mi North 6.9 mph - N/A   Overcast
2:35 AM 26.6 °F 21.2 °F 23.0 °F 86% 30.10 in 10.0 mi NNW 4.6 mph - N/A   Overcast
3:15 AM 26.6 °F 21.2 °F 23.0 °F 86% 30.10 in 10.0 mi NNW 4.6 mph - N/A   Overcast
3:35 AM 26.6 °F 19.1 °F 23.0 °F 86% 30.10 in 10.0 mi NW 6.9 mph - N/A   Overcast
3:55 AM 26.6 °F 19.1 °F 21.2 °F 80% 30.10 in 10.0 mi NW 6.9 mph - N/A   Overcast
4:15 AM 24.8 °F 16.9 °F 21.2 °F 86% 30.10 in 10.0 mi NW 6.9 mph - N/A   Overcast
4:35 AM 24.8 °F 17.9 °F 21.2 °F 86% 30.10 in 10.0 mi NW 5.8 mph - N/A   Overcast
5:15 AM 23.0 °F 14.7 °F 19.4 °F 86% 30.11 in 10.0 mi NW 6.9 mph - N/A   Overcast
5:35 AM 23.0 °F 13.1 °F 19.4 °F 86% 30.13 in 10.0 mi NW 9.2 mph - N/A   Overcast
6:15 AM 23.0 °F 13.9 °F 19.4 °F 86% 30.13 in 10.0 mi NW 8.1 mph - N/A   Overcast
6:35 AM 23.0 °F 13.1 °F 19.4 °F 86% 30.14 in 10.0 mi NW 9.2 mph - N/A   Overcast
6:55 AM 23.0 °F 14.7 °F 19.4 °F 86% 30.14 in 10.0 mi NW 6.9 mph - N/A   Overcast
7:15 AM 23.0 °F 14.7 °F 19.4 °F 86% 30.16 in 10.0 mi NW 6.9 mph - N/A   Overcast
7:35 AM 23.0 °F 15.8 °F 17.6 °F 80% 30.15 in 10.0 mi NW 5.8 mph - N/A   Overcast
7:55 AM 21.2 °F 12.6 °F 17.6 °F 86% 30.15 in 10.0 mi NW 6.9 mph - N/A   Mostly Cloudy
8:15 AM 21.2 °F 10.9 °F 17.6 °F 86% 30.14 in 10.0 mi NW 9.2 mph - N/A   Mostly Cloudy
8:35 AM 21.2 °F 10.9 °F 17.6 °F 86% 30.12 in 10.0 mi NNW 9.2 mph - N/A   Scattered Clouds
8:55 AM 21.2 °F 11.7 °F 17.6 °F 86% 30.12 in 10.0 mi NNW 8.1 mph - N/A   Clear
9:15 AM 21.2 °F 12.6 °F 17.6 °F 86% 30.15 in 10.0 mi NW 6.9 mph - N/A   Clear
9:35 AM 23.0 °F 15.8 °F 17.6 °F 80% 30.18 in 10.0 mi NW 5.8 mph - N/A   Clear
9:55 AM 23.0 °F 13.9 °F 17.6 °F 80% 30.17 in 10.0 mi NW 8.1 mph - N/A   Clear
10:35 AM 23.0 °F 13.9 °F 17.6 °F 80% 30.19 in 10.0 mi WNW 8.1 mph - N/A   Clear
10:55 AM 24.8 °F 15.3 °F 19.4 °F 80% 30.19 in 10.0 mi WNW 9.2 mph - N/A   Scattered Clouds
11:15 AM 24.8 °F 17.9 °F 19.4 °F 80% 30.18 in 10.0 mi WNW 5.8 mph - N/A   Scattered Clouds
11:35 AM 26.6 °F 18.2 °F 19.4 °F 74% 30.17 in 10.0 mi WNW 8.1 mph - N/A   Mostly Cloudy
11:55 AM 26.6 °F 18.2 °F 21.2 °F 80% 30.16 in 10.0 mi WNW 8.1 mph - N/A   Overcast
12:15 PM 28.4 °F 19.7 °F 21.2 °F 74% 30.14 in 10.0 mi NW 9.2 mph - N/A   Overcast
12:35 PM 28.4 °F 19.7 °F 21.2 °F 74% 30.14 in 10.0 mi NW 9.2 mph - N/A   Scattered Clouds
12:55 PM 28.4 °F 20.4 °F 21.2 °F 74% 30.14 in 10.0 mi NW 8.1 mph - N/A   Clear
1:15 PM 28.4 °F 19.1 °F 21.2 °F 74% 30.14 in 10.0 mi NW 10.4 mph - N/A   Clear
1:35 PM 28.4 °F 19.1 °F 21.2 °F 74% 30.13 in 10.0 mi NW 10.4 mph - N/A   Scattered Clouds
1:55 PM 28.4 °F 19.7 °F 21.2 °F 74% 30.13 in 10.0 mi WNW 9.2 mph 19.6 mph N/A   Scattered Clouds
2:15 PM 28.4 °F 20.4 °F 21.2 °F 74% 30.14 in 10.0 mi WNW 8.1 mph - N/A   Clear
2:35 PM 28.4 °F 20.4 °F 19.4 °F 69% 30.14 in 10.0 mi NW 8.1 mph - N/A   Clear
2:55 PM 28.4 °F 22.2 °F 19.4 °F 69% 30.14 in 10.0 mi NW 5.8 mph - N/A   Clear
3:15 PM 28.4 °F 23.3 °F 19.4 °F 69% 30.14 in 10.0 mi WNW 4.6 mph - N/A   Clear
3:35 PM 28.4 °F 24.6 °F 17.6 °F 64% 30.14 in 10.0 mi WNW 3.5 mph - N/A   Clear
3:55 PM 26.6 °F - 17.6 °F 69% 30.14 in 10.0 mi Calm Calm - N/A   Clear
4:15 PM 24.8 °F 20.5 °F 17.6 °F 74% 30.14 in 10.0 mi West 3.5 mph - N/A   Clear
4:35 PM 23.0 °F 18.4 °F 15.8 °F 74% 30.14 in 10.0 mi West 3.5 mph - N/A   Clear
4:55 PM 21.2 °F 16.4 °F 14.0 °F 74% 30.14 in 10.0 mi West 3.5 mph - N/A   Clear
5:15 PM 21.2 °F 13.6 °F 14.0 °F 74% 30.14 in 10.0 mi WSW 5.8 mph - N/A   Clear
5:35 PM 19.4 °F 10.4 °F 14.0 °F 80% 30.15 in 10.0 mi West 6.9 mph - N/A   Clear
5:55 PM 19.4 °F 10.4 °F 12.2 °F 74% 30.15 in 10.0 mi West 6.9 mph - N/A   Clear
6:15 PM 17.6 °F 8.2 °F 12.2 °F 79% 30.16 in 10.0 mi West 6.9 mph - N/A   Clear
6:35 PM 17.6 °F 9.3 °F 12.2 °F 79% 30.17 in 10.0 mi NW 5.8 mph - N/A   Clear
6:55 PM 19.4 °F 11.5 °F 12.2 °F 74% 30.17 in 10.0 mi WNW 5.8 mph - N/A   Clear
7:15 PM 17.6 °F 8.2 °F 10.4 °F 73% 30.17 in 10.0 mi West 6.9 mph - N/A   Clear
7:35 PM 19.4 °F 10.4 °F 10.4 °F 68% 30.18 in 10.0 mi WNW 6.9 mph - N/A   Clear
7:55 PM 17.6 °F 9.3 °F 8.6 °F 68% 30.17 in 10.0 mi WNW 5.8 mph - N/A   Clear
8:15 PM 14.0 °F 8.2 °F 8.6 °F 79% 30.17 in 10.0 mi WNW 3.5 mph - N/A   Clear
8:35 PM 12.2 °F 6.1 °F 8.6 °F 85% 30.17 in 10.0 mi WNW 3.5 mph - N/A   Clear
8:55 PM 12.2 °F 2.9 °F 6.8 °F 79% 30.17 in 10.0 mi WNW 5.8 mph - N/A   Clear
9:15 PM 14.0 °F 6.5 °F 8.6 °F 79% 30.18 in 10.0 mi WNW 4.6 mph - N/A   Clear
9:35 PM 12.2 °F 4.3 °F 6.8 °F 79% 30.17 in 10.0 mi WNW 4.6 mph - N/A   Clear
9:55 PM 12.2 °F 4.3 °F 6.8 °F 79% 30.18 in 10.0 mi West 4.6 mph - N/A   Clear
10:15 PM 12.2 °F 4.3 °F 8.6 °F 85% 30.18 in 10.0 mi West 4.6 mph - N/A   Clear
10:35 PM 10.4 °F 2.2 °F 6.8 °F 85% 30.17 in 10.0 mi West 4.6 mph - N/A   Clear
10:55 PM 12.2 °F 4.3 °F 6.8 °F 79% 30.17 in 10.0 mi West 4.6 mph - N/A   Clear
11:15 PM 8.6 °F 0.1 °F 5.0 °F 85% 30.19 in 10.0 mi WSW 4.6 mph - N/A   Clear
11:35 PM 8.6 °F -2.6 °F 5.0 °F 85% 30.18 in 10.0 mi West 6.9 mph - N/A   Clear
11:55 PM 10.4 °F 2.2 °F 5.0 °F 79% 30.18 in 10.0 mi WSW 4.6 mph - N/A   Clear